Погода в Ольшанке

Россия / Белгородская область     51°00′32″N   37°39′56″E
темп.,
°C
ветер,
м/с
пор.,
м/с
влажн.,
%
обл.,
%
осадки,
мм/ч
давл.,
гПа
погр.,
м
14 августа, вс
вс1400:00+23в61253100 0.0 1017427
03:00+23всв51257100 0.1 1017403
06:00+21св4962100 0.2 1017224
09:00+21всв4974100 0.9 1017308
12:00+24всв6106391 0.1 1016515
15:00+28всв684592 0.1 10151382
18:00+28всв5943100 0.0 1014600
21:00+20св5146778 0.9 1015292
15 августа, пн
пн1500:00+19всв5136810 0.1 1014276
03:00+18всв3117025 0.1 1014188
06:00+18всв4136661 0.0 1014230
09:00+25в6104275 0.0 1014479
12:00+31в7929100 0.0 10131265
15:00+34в792387 0.0 10122370
18:00+32в71228100 0.0 1011508
21:00+28всв81632100 0.0 1011479
16 августа, вт
вт1600:00+27в9183398 0.0 1012694
03:00+23вюв61247100 0.1 1014386
06:00+23в61538100 0.1 1014420
09:00+23в81635100 0.1 1014471
12:00+26в71233100 0.0 1014618
15:00+25св51137100 0.0 1013319
18:00+27всв61135100 0.0 1013722
21:00+24всв6134685 0.0 1013406
17 августа, ср
ср1700:00+25всв61640100 0.0 1013627
03:00+25в71635100 0.0 1011465
06:00+23всв61337100 0.0 1012395
09:00+26вюв7144695 0.6 1011944
12:00+32вюв8112548 0.1 10101761
15:00+34вюв69213 0.1 10092704
18:00+33вюв222982 0.1 100737
21:00+28в61332100 0.1 1008297
18 августа, чт
чт1800:00+27в81529100 0.0 1009560
03:00+22всв41145100 0.2 1009255
06:00+19св386897 0.4 1010188
09:00+24всв574443 0.5 1009466
12:00+31в572930 0.0 10081274
15:00+31в68328 0.1 10091303
18:00+28св693598 0.0 1008789
21:00+22ссв394830 0.1 1008161